GFSGL_sfc_thetae_150.txt.gz
Theta_e
280 280 279 279 279 279 279 279 279 280 280 280 281 281 280 280 279 279 279 279 279 280 281 284 284 286 286 287 290 293 296 296 298 301 298 297 292 294 299 303 302 299 297
280 279 279 278 278 278 278 278 279 278 279 279 279 281 279 278 278 277 277 278 277 277 279 282 282 284 283 285 287 288 291 293 294 300 289 291 289 291 294 295 296 298 297
279 278 277 275 276 274 276 277 278 277 277 278 278 279 278 277 276 276 276 276 276 277 278 280 282 282 281 282 283 284 286 287 287 287 285 286 289 287 290 294 290 290 292
274 274 273 271 271 272 275 277 278 277 277 277 278 279 279 277 276 275 276 275 275 276 278 280 280 281 281 280 281 281 282 282 283 282 281 281 283 285 287 287 290 285 283
271 271 268 270 274 277 277 278 277 276 276 276 277 278 281 278 278 275 275 274 274 274 276 278 280 282 283 283 280 279 280 279 279 279 278 278 278 279 279 284 284 289 282
269 267 269 271 271 274 275 276 276 276 274 272 274 275 277 280 279 279 275 274 274 274 274 276 277 278 279 280 281 282 280 277 276 277 276 275 275 277 279 280 279 280 278
271 265 268 268 267 269 276 275 273 270 272 271 271 273 274 276 279 278 277 272 271 270 273 274 276 277 276 276 277 277 279 279 278 276 275 275 275 275 278 278 280 277 275
276 274 269 269 268 267 269 269 268 269 268 269 271 272 272 277 278 278 277 269 270 270 269 273 273 273 275 274 273 271 271 274 275 276 274 275 276 276 275 277 278 279 276
277 277 278 274 270 269 270 270 269 268 267 267 268 271 271 274 279 278 275 271 270 271 272 275 273 274 277 276 270 269 269 268 274 277 277 277 277 278 277 275 273 273 271
278 278 279 279 279 276 273 271 272 272 270 273 273 272 276 271 280 279 276 274 271 272 273 273 278 275 277 276 270 269 267 266 267 268 269 271 272 273 275 271 272 270 267
279 279 280 280 279 279 278 279 278 277 276 274 273 272 272 274 275 279 279 273 271 272 272 272 275 277 276 276 275 270 269 265 265 266 267 268 269 269 270 270 269 269 267
275 275 275 275 279 279 278 278 280 278 276 275 273 272 273 273 277 278 279 278 277 273 269 270 274 276 276 275 273 273 272 266 266 265 265 265 266 267 268 268 268 267 265
273 273 271 273 274 272 273 272 275 276 275 275 272 270 270 272 272 276 278 277 276 273 274 275 275 274 273 272 273 272 268 267 265 264 263 264 264 264 267 268 269 267 269
272 272 271 275 272 270 272 273 272 270 271 271 269 265 264 268 268 270 271 271 273 271 270 268 269 271 266 265 268 269 267 266 264 261 260 261 266 267 267 268 266 267 266
275 275 277 277 273 271 270 271 272 267 272 269 265 265 262 262 265 273 272 270 270 270 268 267 265 265 265 265 265 266 266 267 266 266 265 264 265 266 266 267 266 265 264
276 277 277 275 274 273 272 272 277 277 276 275 274 270 267 274 277 277 276 275 274 272 266 262 258 259 263 263 263 263 264 264 265 266 265 264 264 264 265 265 265 264 263
277 278 277 276 274 273 273 273 271 274 276 276 275 275 275 275 276 276 275 274 272 270 263 260 256 259 262 263 262 262 261 263 264 263 262 261 262 264 264 264 264 264 263
277 277 277 275 274 273 272 271 271 270 268 266 273 272 274 275 274 273 272 270 266 266 265 262 261 262 262 261 261 261 260 260 261 261 259 258 257 261 262 263 263 259 262
277 274 275 276 275 274 273 272 271 270 269 268 267 268 268 275 273 272 270 263 260 263 264 263 262 262 261 261 256 255 251 255 256 253 256 256 253 258 259 261 262 259 260
275 274 273 273 273 273 274 273 273 271 270 268 265 265 267 267 263 258 257 257 258 261 261 262 261 259 257 257 252 250 253 255 256 256 251 248 250 255 256 258 261 260 261
275 275 274 274 274 273 272 271 271 271 270 268 265 264 266 266 265 263 262 257 259 260 259 259 258 254 253 253 257 252 253 252 253 253 253 255 247 253 257 258 259 262 261
276 275 275 275 275 274 273 272 272 270 269 267 266 265 266 266 265 263 262 259 259 261 261 258 259 257 256 255 253 247 250 248 248 250 251 252 255 256 256 256 256 259 258
276 275 275 275 275 272 271 270 270 270 269 268 267 267 266 264 264 263 261 258 260 259 259 257 254 254 253 250 250 252 252 252 252 248 248 248 254 255 255 255 256 259 254
275 273 274 271 271 271 270 267 267 268 268 267 267 266 265 264 263 261 259 256 257 255 252 251 253 254 254 249 248 252 254 250 250 250 246 247 252 254 256 257 258 259 254
272 271 272 271 269 269 269 268 267 268 268 267 266 266 265 264 263 261 259 257 256 251 252 251 251 253 252 250 252 253 250 251 248 248 247 247 248 251 255 256 257 256 254
271 272 271 270 269 269 269 268 267 267 267 266 266 265 264 263 262 258 257 256 255 252 251 250 251 252 252 253 255 252 250 250 248 248 245 249 248 250 254 254 256 257 257

GFSGL_sfc_thetae_153.txt.gz
Theta_e
280 280 280 279 279 279 278 277 276 276 277 278 279 278 277 277 277 277 278 278 278 279 281 282 282 284 284 286 289 292 294 296 296 295 295 293 291 294 295 299 298 296 294
279 280 279 278 277 277 276 277 277 276 277 278 278 278 276 276 276 275 275 277 277 277 279 281 281 283 281 283 285 287 288 288 291 288 288 289 288 289 293 291 293 294 293
279 278 277 276 276 274 274 275 276 275 276 278 278 277 276 276 275 276 275 275 276 277 278 279 280 281 279 280 282 282 284 285 285 285 283 285 287 285 290 289 287 287 290
275 274 273 270 271 271 273 275 276 276 276 277 278 279 276 276 275 275 275 275 275 276 277 278 280 280 279 279 279 280 281 281 282 281 280 280 281 283 285 285 285 283 281
270 270 267 269 274 276 276 276 276 276 275 277 278 279 278 278 278 275 275 274 274 274 276 278 279 281 282 281 278 278 278 279 279 278 277 277 277 278 278 281 283 283 280
268 267 268 272 271 273 275 275 274 275 274 272 275 276 275 279 280 279 275 273 273 274 274 275 277 277 277 279 280 280 278 276 275 275 275 274 274 275 278 279 277 279 277
271 264 266 269 268 271 275 272 269 267 271 271 271 272 272 272 279 279 277 270 270 269 272 273 275 276 275 274 275 276 278 278 277 275 273 273 273 273 276 278 276 275 273
275 273 267 268 270 270 270 266 265 267 268 269 271 271 272 276 279 278 277 268 268 269 269 271 271 272 274 272 271 269 269 273 275 274 273 274 274 273 274 276 277 276 274
276 276 277 273 271 271 270 266 265 266 268 267 269 271 271 273 279 278 275 271 270 271 272 274 272 272 276 275 268 267 267 266 273 276 276 275 276 276 274 272 271 273 270
276 277 278 278 278 275 274 271 267 268 268 271 271 270 275 272 280 279 275 274 270 272 273 273 277 275 276 274 268 267 265 263 264 266 267 269 270 270 273 268 268 267 264
278 279 278 279 279 279 278 278 276 274 274 272 272 270 271 274 276 279 278 272 270 271 271 272 274 276 276 275 273 268 266 261 262 264 265 266 267 267 267 267 266 266 264
276 276 275 275 279 279 278 279 278 277 274 273 272 272 273 274 277 279 279 277 276 272 269 270 272 276 275 274 272 272 271 264 263 264 264 264 264 265 265 265 265 265 261
276 274 273 274 273 274 274 274 278 276 274 273 271 269 269 273 272 277 277 276 275 272 272 273 273 272 272 270 272 271 267 265 264 263 262 262 259 262 266 266 267 267 267
275 273 272 271 271 271 273 274 275 273 271 271 269 265 264 268 267 269 269 269 271 269 267 266 266 269 264 264 266 266 266 266 264 262 261 262 265 266 266 267 265 266 265
275 274 276 275 271 271 272 272 273 267 272 269 266 266 263 264 266 271 270 268 266 267 265 265 263 263 263 263 263 264 264 265 264 264 262 263 264 265 265 266 265 264 261
276 277 277 273 273 272 272 272 277 275 275 274 274 270 267 274 277 276 276 274 272 270 265 259 255 256 260 261 261 261 262 263 263 263 261 261 262 263 264 264 264 262 262
276 277 276 275 272 271 272 272 271 275 276 275 275 275 276 276 277 276 275 273 271 268 262 259 254 254 258 261 260 260 259 261 262 260 259 258 259 262 263 263 263 262 262
276 277 276 274 272 271 269 269 270 270 269 268 274 274 276 275 274 274 273 270 266 266 264 260 258 258 260 260 260 259 259 258 258 258 256 255 254 259 259 261 262 257 261
277 275 275 273 272 271 270 269 269 270 269 265 265 268 270 274 273 271 270 264 263 263 263 262 259 260 260 259 254 253 250 252 251 249 253 253 249 256 257 258 259 258 259
275 274 274 274 272 271 271 270 270 269 268 266 264 262 266 266 260 259 259 259 260 261 261 261 260 258 257 257 255 250 252 251 253 254 249 247 248 253 254 255 256 258 260
275 274 275 275 274 274 273 272 271 270 269 267 265 263 267 266 264 262 262 259 260 261 259 259 258 255 255 255 257 255 254 251 252 252 252 253 246 252 256 256 256 258 260
275 275 275 275 275 274 274 274 272 271 270 267 264 264 268 265 264 264 263 261 261 261 261 260 260 259 258 257 256 249 249 247 247 249 249 250 252 254 254 255 254 253 257
275 275 275 274 274 272 273 272 270 270 268 267 266 266 266 265 263 263 261 258 261 260 260 260 258 258 257 254 253 252 251 250 251 247 245 245 251 252 252 253 255 254 255
275 274 274 272 271 271 270 269 268 268 268 267 266 266 265 265 263 261 260 259 259 258 257 258 258 258 257 251 248 251 253 249 248 248 245 245 249 252 252 254 256 256 254
272 273 271 270 269 269 267 267 268 268 268 267 266 267 266 265 263 261 259 258 258 256 257 256 256 256 254 251 251 252 250 251 247 247 246 246 246 246 250 253 253 255 255
272 271 270 269 268 267 267 266 266 267 266 267 267 266 265 264 263 260 259 259 258 257 256 255 255 253 251 251 253 253 249 250 247 247 244 248 246 247 249 250 251 252 255

GFSGL_sfc_thetae_156.txt.gz
Theta_e
280 279 279 279 279 278 277 277 276 276 277 277 278 276 276 276 276 276 276 277 277 278 280 281 281 282 282 284 287 289 290 292 295 291 292 292 290 293 294 295 294 293 293
279 279 280 279 278 277 276 276 276 275 277 278 277 276 276 276 276 276 275 276 276 276 278 279 280 281 280 282 283 284 286 287 291 287 287 288 286 290 290 288 291 292 291
280 279 278 277 276 273 273 275 276 275 276 278 278 275 276 276 275 276 275 275 275 276 277 278 279 280 278 279 280 281 283 284 284 285 282 284 286 286 287 286 285 286 289
277 276 274 272 271 270 273 275 277 277 277 277 278 277 276 276 276 275 275 275 275 275 276 277 278 279 279 278 278 278 280 280 281 280 279 280 281 283 284 284 282 281 281
273 272 270 269 273 275 276 276 277 276 276 277 278 278 279 278 278 275 274 274 274 274 275 277 277 279 281 281 278 277 277 277 277 277 277 276 276 278 278 279 283 282 280
271 270 270 272 271 272 274 275 275 275 273 271 274 275 274 279 280 278 275 273 273 274 273 275 276 276 276 278 279 280 278 275 274 274 274 274 273 275 279 277 278 280 278
271 266 270 270 267 267 273 272 270 269 270 270 270 272 271 273 279 279 277 271 270 270 272 273 274 275 274 273 274 274 277 277 276 274 272 271 272 272 277 275 275 274 272
275 272 268 269 267 264 265 265 265 267 266 268 270 271 272 276 279 278 277 269 268 270 269 271 271 272 273 271 270 269 268 272 274 274 273 273 273 273 273 276 276 274 273
275 276 275 271 268 267 268 267 266 267 267 266 269 271 271 273 279 278 275 272 269 270 272 274 271 271 275 274 266 265 265 264 271 275 275 274 275 275 273 272 270 273 269
276 276 277 276 275 273 272 269 268 269 268 271 271 268 276 273 279 278 275 275 270 272 272 273 277 274 275 273 268 266 264 262 263 265 266 268 268 269 272 267 269 266 265
277 278 278 278 278 277 276 276 274 274 274 273 272 270 271 274 276 279 277 271 271 271 271 271 274 276 275 274 272 268 266 263 263 265 266 266 266 266 266 266 266 267 264
274 274 275 276 279 278 277 276 276 275 274 273 273 272 274 274 278 279 278 276 274 271 269 270 272 275 275 273 271 271 270 265 264 264 264 264 264 265 266 266 266 266 265
273 273 273 274 274 275 275 277 275 275 273 271 272 269 270 273 272 277 277 276 274 271 271 272 272 271 270 269 271 270 267 265 264 263 262 263 265 266 267 267 268 269 268
273 272 270 270 267 266 272 277 276 274 271 272 270 266 266 269 268 269 269 269 270 268 266 265 266 268 263 263 265 265 265 265 263 262 262 264 267 267 266 267 266 266 265
275 274 275 274 272 268 268 271 275 269 274 270 267 267 266 265 266 270 268 267 266 266 264 264 263 263 262 262 263 263 264 264 263 262 262 262 264 265 265 266 265 265 263
275 276 276 274 273 272 272 272 277 276 277 275 274 271 269 274 276 276 275 273 271 270 264 260 258 258 259 261 260 261 262 261 261 261 260 261 261 263 264 265 264 264 262
276 277 276 274 272 271 273 272 270 274 276 276 275 276 276 277 277 276 274 272 270 268 262 260 258 257 260 260 260 260 259 260 260 259 258 258 259 262 262 263 263 262 262
276 276 276 273 272 271 270 270 270 270 267 264 275 275 276 276 276 275 274 270 266 266 263 261 260 260 260 260 260 259 258 257 257 258 256 255 254 259 260 261 261 260 262
276 275 275 273 271 270 270 270 269 269 268 265 266 269 271 275 273 272 271 264 264 264 263 262 260 260 260 259 256 256 255 255 254 253 254 254 251 257 258 259 259 258 260
274 274 274 272 270 270 270 270 270 269 269 267 267 266 268 266 260 255 255 257 261 262 263 261 260 259 258 258 255 253 256 256 256 256 254 253 252 255 256 257 258 258 261
274 274 274 273 272 271 271 270 271 270 269 268 267 264 266 265 263 262 262 261 262 262 260 260 259 258 257 258 258 256 256 255 254 254 254 254 251 254 256 257 258 258 260
274 274 275 274 274 272 272 272 271 271 270 269 266 264 267 265 264 263 262 262 262 262 262 261 260 260 259 258 258 254 254 253 253 253 252 252 253 255 255 255 256 256 258
274 274 274 274 274 273 273 273 272 271 270 268 268 267 266 265 264 264 263 260 262 261 261 260 259 259 258 257 256 257 256 255 254 251 251 250 252 253 253 254 255 256 257
274 273 273 272 272 272 272 271 271 270 268 266 266 266 266 265 264 263 261 261 261 260 259 259 259 259 258 255 255 256 256 253 253 252 249 250 251 252 252 254 255 255 256
272 272 271 272 271 270 270 270 269 269 267 266 265 265 265 265 263 262 260 260 260 258 258 258 259 258 257 255 255 255 252 252 250 248 250 249 250 249 251 253 253 255 255
270 271 270 270 269 269 268 267 266 267 266 266 266 265 265 264 263 261 260 260 259 258 258 257 257 257 256 255 254 254 250 250 249 248 248 251 250 251 251 252 253 254 254

GFSGL_sfc_thetae_159.txt.gz
Theta_e
285 285 285 285 284 284 283 282 282 283 283 282 281 281 280 281 281 281 282 281 281 282 282 282 283 284 284 285 287 287 288 289 293 290 291 291 292 293 293 295 295 293 294
285 284 284 284 283 282 281 281 282 282 283 282 281 281 280 280 281 280 280 280 280 279 280 281 281 284 283 283 285 284 284 287 291 286 287 288 288 288 287 288 291 292 292
284 284 283 282 281 280 280 281 282 282 282 282 281 280 280 280 279 280 279 279 279 279 279 279 280 282 282 282 282 282 282 284 285 285 282 285 286 287 285 285 285 288 289
282 282 281 280 279 279 280 281 282 282 282 282 282 281 281 280 279 279 279 279 278 278 279 279 279 280 280 281 280 280 281 281 282 280 280 280 281 283 285 283 281 281 283
280 279 278 279 279 279 280 281 281 282 281 281 281 281 282 281 280 278 278 278 278 278 278 279 279 279 280 281 279 279 279 278 278 278 277 276 276 277 277 281 282 281 279
278 277 277 279 278 278 280 280 280 280 279 279 280 280 280 281 279 278 278 277 277 277 277 278 278 277 277 278 278 279 278 277 275 275 274 274 274 275 278 278 279 281 279
277 276 276 276 275 277 278 278 276 277 278 278 278 279 279 280 279 278 277 277 277 276 276 277 276 276 276 276 275 275 277 277 276 276 274 273 274 274 279 278 277 276 275
279 277 275 274 273 274 274 274 276 278 278 278 278 279 280 280 279 278 277 277 277 277 276 275 275 275 275 273 273 272 272 275 275 275 274 274 274 275 278 279 279 278 278
279 279 277 274 273 273 273 275 276 277 277 277 278 278 279 279 278 278 277 277 277 276 278 277 276 275 274 274 270 269 270 270 273 274 274 274 274 274 275 277 276 279 275
280 280 279 278 277 275 275 275 277 278 277 278 278 278 278 279 278 277 278 278 276 276 277 277 276 276 275 273 272 270 268 268 270 271 272 272 272 272 273 273 274 271 273
281 281 280 280 279 278 278 278 278 278 278 277 277 277 278 279 280 278 276 277 276 275 275 276 277 275 274 274 273 271 269 270 270 271 271 272 272 272 272 272 272 272 271
279 279 279 279 280 280 278 279 278 278 276 276 277 277 278 280 280 279 277 276 275 274 274 275 275 274 274 273 272 271 270 270 272 271 271 270 270 270 272 272 271 271 271
278 278 279 280 281 280 279 278 279 278 278 276 276 276 277 278 280 278 277 275 274 274 274 272 271 271 270 271 271 270 270 271 270 270 269 270 270 271 272 272 272 272 272
277 278 278 279 280 280 281 280 279 278 278 278 276 275 276 277 277 277 277 275 272 272 270 270 270 269 267 268 270 270 270 269 268 268 269 270 271 271 270 271 271 271 271
278 278 279 280 280 280 281 281 280 281 280 279 277 276 275 275 275 274 273 273 272 270 270 270 270 269 269 269 269 268 269 269 268 268 268 268 269 270 269 270 270 270 269
278 279 280 280 280 280 279 279 278 279 279 277 276 277 277 276 275 275 274 273 271 270 270 268 267 267 267 268 268 267 267 266 266 267 267 267 267 268 269 269 269 269 268
280 280 280 279 279 278 278 278 277 278 278 277 276 276 276 277 278 276 275 273 270 269 269 268 267 267 267 267 267 266 265 265 265 265 265 265 266 267 267 267 267 268 267
281 279 280 280 279 279 278 278 278 276 275 275 276 277 278 278 277 275 273 271 270 269 269 268 267 267 267 266 266 265 265 264 264 264 264 263 264 266 266 266 266 266 267
280 280 280 279 279 278 278 277 277 276 275 275 276 275 277 276 276 275 273 272 270 269 268 267 267 267 266 265 265 264 263 263 262 263 263 262 262 264 264 265 265 263 264
280 279 278 278 276 277 277 276 275 275 274 274 274 275 275 273 271 270 270 270 269 269 268 267 266 266 265 265 264 264 264 264 263 263 262 262 262 264 264 264 264 264 265
280 278 277 277 276 276 276 276 275 275 274 274 274 274 273 273 271 270 269 268 268 268 267 267 265 265 264 265 265 264 263 263 262 261 261 261 260 262 263 264 264 264 264
280 278 277 277 277 276 276 276 275 275 275 274 274 272 271 273 271 270 269 268 268 267 267 266 265 265 265 265 264 263 262 261 262 261 260 259 260 262 262 262 263 263 263
279 278 278 277 277 276 276 276 276 275 275 275 274 272 271 272 271 270 269 268 267 267 267 266 265 264 264 263 263 263 262 261 261 259 258 258 259 260 260 261 261 261 262
279 279 278 278 277 277 277 276 276 275 276 275 274 273 272 271 271 269 268 267 267 266 265 264 264 263 262 261 262 262 262 261 260 259 255 257 258 259 259 259 260 260 260
279 278 278 277 277 277 277 277 276 275 275 274 273 273 272 271 270 269 268 266 265 264 264 264 264 262 261 260 260 260 258 256 257 254 259 257 256 256 257 258 258 259 259
278 277 277 277 277 277 277 276 276 275 274 273 272 272 271 270 270 268 267 266 264 263 263 263 263 262 261 261 260 259 257 255 256 253 258 259 258 258 258 257 257 258 259

GFSGL_sfc_thetae_162.txt.gz
Theta_e
292 291 291 290 290 290 289 289 289 288 288 287 287 286 286 286 287 287 287 286 286 286 287 284 285 286 286 287 287 289 288 288 287 289 290 291 289 290 293 293 292 293 292
291 290 290 289 289 288 287 288 288 288 287 286 286 286 285 285 286 285 284 285 284 284 284 284 283 285 285 286 286 286 286 287 288 286 286 287 288 288 287 289 291 291 288
290 290 289 288 287 286 286 287 288 287 287 287 286 285 284 284 284 284 284 283 283 283 283 283 282 282 282 284 284 284 285 285 286 285 283 285 286 286 287 285 284 288 288
288 288 287 286 284 284 286 287 287 288 287 287 286 285 284 284 283 284 283 284 283 282 282 282 281 281 280 282 283 283 284 285 285 284 282 282 283 283 284 283 281 281 281
285 285 284 284 284 284 285 286 287 287 286 286 286 286 286 284 282 283 283 283 282 282 282 282 281 280 280 281 281 281 283 283 282 282 282 281 280 280 278 281 281 280 279
284 283 283 283 282 283 285 286 286 285 284 284 285 284 284 283 279 279 282 282 281 281 281 281 281 280 280 278 279 279 279 280 280 279 277 277 277 279 281 280 280 280 279
283 282 281 281 280 282 284 284 282 282 283 282 282 283 282 282 279 279 280 282 281 280 280 280 279 278 279 279 277 278 278 278 278 279 276 275 276 277 281 280 281 280 277
284 282 281 279 279 280 281 280 281 282 282 282 282 283 282 281 278 278 279 282 281 280 280 279 278 277 276 277 277 276 276 276 276 277 276 275 276 279 281 281 281 281 281
284 283 282 278 278 278 278 280 282 282 282 282 282 282 282 281 278 278 280 282 280 280 280 279 278 277 275 276 275 274 275 275 276 276 276 276 276 276 278 281 280 282 278
286 285 284 282 280 279 280 281 282 283 282 283 281 282 280 280 278 278 280 282 280 281 281 279 276 276 275 275 276 275 273 273 276 276 277 277 277 276 275 276 278 277 277
286 286 284 283 282 282 282 283 283 283 282 282 281 281 281 282 280 277 277 281 281 280 280 279 278 275 275 274 274 274 272 276 276 277 277 278 277 277 276 276 275 275 274
284 283 283 283 283 283 282 283 283 283 281 281 282 282 283 282 280 278 277 277 277 279 278 278 276 274 274 273 274 273 273 276 277 277 276 275 275 275 276 276 275 275 274
283 282 282 283 283 283 282 282 282 282 282 282 281 281 281 281 282 278 276 275 275 278 277 273 272 272 272 274 272 272 274 276 276 275 274 274 275 275 276 277 277 277 276
282 282 282 282 283 282 283 283 283 282 282 282 281 281 281 281 281 281 279 277 274 275 273 275 272 272 271 273 275 275 275 274 274 274 274 275 276 275 274 275 275 276 275
282 282 283 283 283 281 283 282 282 284 283 282 282 282 281 280 281 279 279 278 278 275 275 276 277 277 276 276 275 274 274 274 274 274 274 274 274 274 274 274 274 275 274
282 282 283 284 284 284 283 281 280 282 281 280 280 282 281 279 276 275 274 273 272 271 275 276 275 275 275 274 274 274 273 271 272 272 273 272 273 272 273 273 274 273 273
284 284 284 284 284 283 283 281 279 279 280 279 278 278 278 278 276 276 275 274 271 271 276 276 275 275 274 273 273 272 271 270 270 271 271 270 271 272 272 272 272 272 272
286 283 285 285 285 284 284 283 282 279 278 277 277 278 278 278 278 276 275 273 272 272 275 274 274 274 274 273 272 271 271 271 270 270 270 269 269 271 271 270 271 269 270
286 285 286 285 285 284 283 283 281 280 279 279 278 278 279 279 277 276 274 276 275 274 273 273 274 273 272 272 271 270 270 269 268 269 269 268 268 270 269 269 270 267 267
286 284 284 284 283 282 282 280 280 280 279 279 279 278 278 277 276 275 276 276 275 274 273 272 272 272 272 271 271 271 271 270 270 269 268 268 268 269 269 268 269 268 269
285 283 283 283 282 282 282 280 280 280 280 279 279 279 278 277 276 276 275 275 274 274 273 272 271 271 271 271 271 270 269 270 268 268 268 267 266 267 268 268 268 268 268
285 283 282 282 282 282 282 282 281 280 279 279 278 278 277 277 277 276 275 274 274 273 273 272 271 270 271 270 270 270 268 267 268 267 267 265 265 267 267 267 267 267 267
284 282 282 282 282 281 281 281 280 280 279 279 278 277 276 276 276 276 275 274 273 271 271 271 271 269 269 269 270 270 268 267 267 265 264 264 265 266 266 266 266 265 265
284 282 282 281 281 280 280 280 280 279 279 278 278 277 276 276 277 276 274 273 272 272 270 270 269 268 267 267 268 267 267 266 266 265 259 262 264 264 264 264 264 264 263
283 282 282 282 281 280 280 279 280 279 279 279 279 278 277 276 275 275 274 273 271 270 269 268 268 267 265 264 265 264 262 260 260 258 263 261 261 259 261 262 262 263 263
283 282 282 282 281 280 279 280 280 280 279 279 279 278 277 276 275 275 273 271 270 269 268 268 267 266 265 264 263 263 260 259 259 256 261 264 263 263 263 261 260 262 262